Location: Newark
(43.0117°N, 7.5572°W)
Time: 20:54:36
(UTC+00:00)

X-37B - Pass Details

Date: 08 October 2020
Orbit: 382 x 392 km, 45.0° (Epoch: 15 October)

Event Time Altitude Azimuth Distance (km) Brightness Sun altitude
Rises 19:39:52 0° 276° (W) 2,267 6.1 -19.3°
Reaches altitude 10° 19:41:58 10° 281° (W) 1,411 4.7 -19.7°
Enters shadow 19:44:56 55° 346° (NNW) 467 1.0 -20.2°
